Time,TemperatureF,DewpointF,PressureIn,WindDirection,WindDirectionDegrees,WindSpeedMPH,WindSpeedGustMPH,Humidity,HourlyPrecipIn,Conditions,Clouds,dailyrainin,SolarRadiationWatts/m^2,SoftwareType,DateUTC
2013-09-24 00:22:00,42.0,22.0,-100.00,WSW,254,24.0,39.0,45,0.00,,,0.01,0.000000,,2013-09-24 06:22:00,
2013-09-24 00:32:00,42.0,22.0,-100.00,WSW,254,24.0,39.0,45,0.00,,,0.01,0.000000,,2013-09-24 06:32:00,
2013-09-24 00:42:00,42.0,22.0,-100.00,WSW,254,24.0,39.0,45,0.00,,,0.01,0.000000,,2013-09-24 06:42:00,
2013-09-24 00:52:00,42.0,22.0,-100.00,WSW,245,29.0,47.0,45,0.00,,,0.01,0.000000,,2013-09-24 06:52:00,
2013-09-24 01:21:00,42.0,22.0,-100.00,WSW,245,29.0,47.0,45,0.00,,,0.01,0.000000,,2013-09-24 07:21:00,
2013-09-24 01:32:00,42.0,22.0,-100.00,WSW,245,29.0,47.0,45,0.00,,,0.01,0.000000,,2013-09-24 07:32:00,
2013-09-24 01:43:00,42.0,22.0,-100.00,WSW,245,29.0,47.0,45,0.00,,,0.01,0.000000,,2013-09-24 07:43:00,
2013-09-24 02:22:00,42.0,23.0,-100.00,West,265,22.0,43.0,46,0.00,,,0.01,0.000000,,2013-09-24 08:22:00,
2013-09-24 02:32:00,42.0,23.0,-100.00,West,265,22.0,43.0,46,0.00,,,0.01,0.000000,,2013-09-24 08:32:00,
2013-09-24 02:42:00,42.0,23.0,-100.00,West,265,22.0,43.0,46,0.00,,,0.01,0.000000,,2013-09-24 08:42:00,
2013-09-24 02:51:00,42.0,23.0,-100.00,West,265,22.0,43.0,46,0.00,,,0.01,0.000000,,2013-09-24 08:51:00,
2013-09-24 02:52:00,43.0,25.0,-100.00,WSW,257,14.0,34.0,49,0.00,,,0.01,0.000000,,2013-09-24 08:52:00,
2013-09-24 03:43:00,43.0,25.0,-100.00,WSW,257,14.0,34.0,49,0.00,,,0.01,0.000000,,2013-09-24 09:43:00,
2013-09-24 03:52:00,42.0,24.0,-100.00,WSW,243,17.0,29.0,49,0.00,,,0.01,0.000000,,2013-09-24 09:52:00,
2013-09-24 04:23:00,42.0,24.0,-100.00,WSW,243,17.0,29.0,49,0.00,,,0.01,0.000000,,2013-09-24 10:23:00,
2013-09-24 04:33:00,42.0,24.0,-100.00,WSW,243,17.0,29.0,49,0.00,,,0.01,0.000000,,2013-09-24 10:33:00,
2013-09-24 04:42:00,42.0,24.0,-100.00,WSW,243,17.0,29.0,49,0.00,,,0.01,0.000000,,2013-09-24 10:42:00,
2013-09-24 04:52:00,42.0,23.0,-100.00,SSW,195,13.0,24.0,47,0.00,,,-99.99,0.000000,,2013-09-24 10:52:00,
2013-09-24 05:22:00,42.0,23.0,-100.00,SSW,195,13.0,24.0,47,0.00,,,-99.99,0.000000,,2013-09-24 11:22:00,
2013-09-24 05:33:00,42.0,23.0,-100.00,SSW,195,13.0,24.0,47,0.00,,,-99.99,0.000000,,2013-09-24 11:33:00,
2013-09-24 05:42:00,42.0,23.0,-100.00,SSW,195,13.0,24.0,47,0.00,,,-99.99,0.000000,,2013-09-24 11:42:00,
2013-09-24 05:52:00,43.0,26.0,-100.00,SW,219,14.0,22.0,50,0.00,,,-99.99,0.000000,,2013-09-24 11:52:00,
2013-09-24 06:22:00,43.0,26.0,-100.00,SW,219,14.0,22.0,50,0.00,,,-99.99,0.000000,,2013-09-24 12:22:00,
2013-09-24 06:32:00,43.0,26.0,-100.00,SW,219,14.0,22.0,50,0.00,,,-99.99,0.000000,,2013-09-24 12:32:00,
2013-09-24 06:42:00,43.0,26.0,-100.00,SW,219,14.0,22.0,50,0.00,,,-99.99,0.000000,,2013-09-24 12:42:00,
2013-09-24 06:52:00,44.0,27.0,-100.00,SW,217,12.0,21.0,50,0.00,,,0.01,0.000000,,2013-09-24 12:52:00,
2013-09-24 07:21:00,44.0,27.0,-100.00,SW,217,12.0,21.0,50,0.00,,,0.01,0.000000,,2013-09-24 13:21:00,
2013-09-24 07:32:00,44.0,27.0,-100.00,SW,217,12.0,21.0,50,0.00,,,0.01,0.000000,,2013-09-24 13:32:00,
2013-09-24 07:42:00,44.0,27.0,-100.00,SW,217,12.0,21.0,50,0.00,,,0.01,0.000000,,2013-09-24 13:42:00,
2013-09-24 07:52:00,45.0,27.0,-100.00,SSW,207,15.0,20.0,49,0.00,,,0.01,21.000000,,2013-09-24 13:52:00,
2013-09-24 08:21:00,45.0,27.0,-100.00,SSW,207,15.0,20.0,49,0.00,,,0.01,21.000000,,2013-09-24 14:21:00,
2013-09-24 08:32:00,45.0,27.0,-100.00,SSW,207,15.0,20.0,49,0.00,,,0.01,21.000000,,2013-09-24 14:32:00,
2013-09-24 08:42:00,45.0,27.0,-100.00,SSW,207,15.0,20.0,49,0.00,,,0.01,21.000000,,2013-09-24 14:42:00,
2013-09-24 08:52:00,47.0,26.0,-100.00,SSW,195,13.0,21.0,44,0.00,,,0.01,209.000000,,2013-09-24 14:52:00,
2013-09-24 09:22:00,47.0,26.0,-100.00,SSW,195,13.0,21.0,44,0.00,,,0.01,209.000000,,2013-09-24 15:22:00,
2013-09-24 09:33:00,47.0,26.0,-100.00,SSW,195,13.0,21.0,44,0.00,,,0.01,209.000000,,2013-09-24 15:33:00,
2013-09-24 09:43:00,47.0,26.0,-100.00,SSW,195,13.0,21.0,44,0.00,,,0.01,209.000000,,2013-09-24 15:43:00,
2013-09-24 09:52:00,52.0,27.0,-100.00,South,182,7.0,17.0,38,0.00,,,0.01,388.000000,,2013-09-24 15:52:00,
2013-09-24 10:23:00,52.0,27.0,-100.00,South,182,7.0,17.0,38,0.00,,,0.01,388.000000,,2013-09-24 16:23:00,
2013-09-24 10:33:00,52.0,27.0,-100.00,South,182,7.0,17.0,38,0.00,,,0.01,388.000000,,2013-09-24 16:33:00,
2013-09-24 10:43:00,52.0,27.0,-100.00,South,182,7.0,17.0,38,0.00,,,0.01,388.000000,,2013-09-24 16:43:00,
2013-09-24 10:52:00,57.0,29.0,-100.00,SSE,156,6.0,11.0,34,0.00,,,0.01,592.000000,,2013-09-24 16:52:00,
2013-09-24 11:23:00,57.0,29.0,-100.00,SSE,156,6.0,11.0,34,0.00,,,0.01,592.000000,,2013-09-24 17:23:00,
2013-09-24 11:33:00,57.0,29.0,-100.00,SSE,156,6.0,11.0,34,0.00,,,0.01,592.000000,,2013-09-24 17:33:00,
2013-09-24 11:43:00,57.0,29.0,-100.00,SSE,156,6.0,11.0,34,0.00,,,0.01,592.000000,,2013-09-24 17:43:00,
2013-09-24 11:52:00,56.0,28.0,-100.00,South,190,7.0,14.0,34,0.00,,,0.01,647.000000,,2013-09-24 17:52:00,
2013-09-24 12:22:00,56.0,28.0,-100.00,South,190,7.0,14.0,34,0.00,,,0.01,647.000000,,2013-09-24 18:22:00,
2013-09-24 12:32:00,56.0,28.0,-100.00,South,190,7.0,14.0,34,0.00,,,0.01,647.000000,,2013-09-24 18:32:00,
2013-09-24 12:42:00,56.0,28.0,-100.00,South,190,7.0,14.0,34,0.00,,,0.01,647.000000,,2013-09-24 18:42:00,
2013-09-24 12:52:00,55.0,29.0,-100.00,SW,222,11.0,18.0,37,0.00,,,0.01,505.000000,,2013-09-24 18:52:00,
2013-09-24 13:22:00,55.0,29.0,-100.00,SW,222,11.0,18.0,37,0.00,,,0.01,505.000000,,2013-09-24 19:22:00,
2013-09-24 13:32:00,55.0,29.0,-100.00,SW,222,11.0,18.0,37,0.00,,,0.01,505.000000,,2013-09-24 19:32:00,
2013-09-24 13:42:00,55.0,29.0,-100.00,SW,222,11.0,18.0,37,0.00,,,0.01,505.000000,,2013-09-24 19:42:00,
2013-09-24 13:52:00,52.0,31.0,-100.00,WSW,238,4.0,20.0,44,0.00,,,0.01,337.000000,,2013-09-24 19:52:00,
2013-09-24 14:22:00,52.0,31.0,-100.00,WSW,238,4.0,20.0,44,0.00,,,0.01,337.000000,,2013-09-24 20:22:00,
2013-09-24 14:32:00,52.0,31.0,-100.00,WSW,238,4.0,20.0,44,0.00,,,0.01,337.000000,,2013-09-24 20:32:00,
2013-09-24 14:42:00,52.0,31.0,-100.00,WSW,238,4.0,20.0,44,0.00,,,0.01,337.000000,,2013-09-24 20:42:00,
2013-09-24 14:52:00,48.0,32.0,-100.00,South,189,12.0,21.0,53,0.00,,,0.01,261.000000,,2013-09-24 20:52:00,
2013-09-24 15:22:00,48.0,32.0,-100.00,South,189,12.0,21.0,53,0.00,,,0.01,261.000000,,2013-09-24 21:22:00,
2013-09-24 15:33:00,48.0,32.0,-100.00,South,189,12.0,21.0,53,0.00,,,0.01,261.000000,,2013-09-24 21:33:00,
2013-09-24 15:43:00,48.0,32.0,-100.00,South,189,12.0,21.0,53,0.00,,,0.01,261.000000,,2013-09-24 21:43:00,
2013-09-24 15:52:00,49.0,32.0,-100.00,SSE,156,5.0,11.0,51,0.00,,,0.00,170.000000,,2013-09-24 21:52:00,
2013-09-24 16:23:00,49.0,32.0,-100.00,SSE,156,5.0,11.0,51,0.00,,,0.00,170.000000,,2013-09-24 22:23:00,
2013-09-24 16:34:00,49.0,32.0,-100.00,SSE,156,5.0,11.0,51,0.00,,,0.00,170.000000,,2013-09-24 22:34:00,
2013-09-24 16:43:00,49.0,32.0,-100.00,SSE,156,5.0,11.0,51,0.00,,,0.00,170.000000,,2013-09-24 22:43:00,
2013-09-24 16:52:00,50.0,33.0,-100.00,South,179,12.0,27.0,51,0.00,,,0.00,104.000000,,2013-09-24 22:52:00,
2013-09-24 17:22:00,50.0,33.0,-100.00,South,179,12.0,27.0,51,0.00,,,0.00,104.000000,,2013-09-24 23:22:00,
2013-09-24 17:33:00,50.0,33.0,-100.00,South,179,12.0,27.0,51,0.00,,,0.00,104.000000,,2013-09-24 23:33:00,
2013-09-24 17:43:00,50.0,33.0,-100.00,South,179,12.0,27.0,51,0.00,,,0.00,104.000000,,2013-09-24 23:43:00,
2013-09-24 17:52:00,43.0,38.0,-100.00,SSE,151,11.0,30.0,82,0.02,,,0.02,37.000000,,2013-09-24 23:52:00,
2013-09-24 18:22:00,43.0,38.0,-100.00,SSE,151,11.0,30.0,82,0.02,,,0.02,37.000000,,2013-09-25 00:22:00,
2013-09-24 18:32:00,43.0,38.0,-100.00,SSE,151,11.0,30.0,82,0.02,,,0.02,37.000000,,2013-09-25 00:32:00,
2013-09-24 18:42:00,43.0,38.0,-100.00,SSE,151,11.0,30.0,82,0.02,,,0.02,37.000000,,2013-09-25 00:42:00,
2013-09-24 18:52:00,45.0,40.0,-100.00,SSE,159,18.0,26.0,82,0.04,,,0.06,12.000000,,2013-09-25 00:52:00,
2013-09-24 19:21:00,45.0,40.0,-100.00,SSE,159,18.0,26.0,82,0.04,,,0.06,12.000000,,2013-09-25 01:21:00,
2013-09-24 19:32:00,45.0,40.0,-100.00,SSE,159,18.0,26.0,82,0.04,,,0.06,12.000000,,2013-09-25 01:32:00,
2013-09-24 19:42:00,45.0,40.0,-100.00,SSE,159,18.0,26.0,82,0.04,,,0.06,12.000000,,2013-09-25 01:42:00,
2013-09-24 19:52:00,45.0,38.0,-100.00,South,190,20.0,36.0,76,0.00,,,0.06,2.000000,,2013-09-25 01:52:00,
2013-09-24 20:21:00,45.0,38.0,-100.00,South,190,20.0,36.0,76,0.00,,,0.06,2.000000,,2013-09-25 02:21:00,
2013-09-24 20:32:00,45.0,38.0,-100.00,South,190,20.0,36.0,76,0.00,,,0.06,2.000000,,2013-09-25 02:32:00,
2013-09-24 20:42:00,45.0,38.0,-100.00,South,190,20.0,36.0,76,0.00,,,0.06,2.000000,,2013-09-25 02:42:00,
2013-09-24 20:52:00,40.0,40.0,-100.00,ENE,64,3.0,31.0,99,0.02,,,0.08,0.000000,,2013-09-25 02:52:00,
2013-09-24 21:23:00,40.0,40.0,-100.00,ENE,64,3.0,31.0,99,0.02,,,0.08,0.000000,,2013-09-25 03:23:00,
2013-09-24 21:33:00,40.0,40.0,-100.00,ENE,64,3.0,31.0,99,0.02,,,0.08,0.000000,,2013-09-25 03:33:00,
2013-09-24 21:44:00,40.0,40.0,-100.00,ENE,64,3.0,31.0,99,0.02,,,0.08,0.000000,,2013-09-25 03:44:00,
2013-09-24 21:52:00,42.0,41.0,-100.00,SSW,209,3.0,14.0,95,0.02,,,0.10,0.000000,,2013-09-25 03:52:00,
2013-09-24 22:24:00,42.0,41.0,-100.00,SSW,209,3.0,14.0,95,0.02,,,0.10,0.000000,,2013-09-25 04:24:00,
2013-09-24 22:34:00,42.0,41.0,-100.00,SSW,209,3.0,14.0,95,0.02,,,0.10,0.000000,,2013-09-25 04:34:00,
2013-09-24 22:42:00,42.0,41.0,-100.00,SSW,209,3.0,14.0,95,0.02,,,0.10,0.000000,,2013-09-25 04:42:00,
2013-09-24 22:52:00,39.0,39.0,-100.00,West,266,10.0,24.0,99,0.11,,,0.21,0.000000,,2013-09-25 04:52:00,
2013-09-24 23:23:00,39.0,39.0,-100.00,West,266,10.0,24.0,99,0.11,,,0.21,0.000000,,2013-09-25 05:23:00,
2013-09-24 23:33:00,39.0,39.0,-100.00,West,266,10.0,24.0,99,0.11,,,0.21,0.000000,,2013-09-25 05:33:00,
2013-09-24 23:44:00,39.0,39.0,-100.00,West,266,10.0,24.0,99,0.11,,,0.21,0.000000,,2013-09-25 05:44:00,
2013-09-24 23:52:00,38.0,38.0,-100.00,NW,319,11.0,24.0,99,0.02,,,0.23,0.000000,,2013-09-25 05:52:00,